Location: Austin
(30.3000°N, 97.7500°W)
Time: 03:27:05
(UTC-05:00)

H-2A R/B - Pass Details

Date: 18 March 2023
Orbit: 179 x 10707 km, 31.9° (Epoch: 01 April)

Event Time Altitude Azimuth Distance (km) Brightness Sun altitude
Rises 20:38:05 0° 274° (W) 2,067 6.3 -13.1°
Reaches altitude 10° 20:39:25 10° 265° (W) 1,500 4.9 -13.4°
Maximum altitude 20:42:21 42° 191° (S) 1,015 2.7 -14.0°
Enters shadow 20:49:01 14° 127° (SE) 3,574 4.9 -15.4°
